User: anonymous   Login
Location: Sobotiste
(48.7170°N, 17.4000°E)
Time: 00:35:39
(UTC+01:00)
Language:

UKube-1 - Orbit

View from above orbital plane
View from above orbital plane
View from above satellite
View from above satellite

Ground track
Ground track

The orbit is defined by the following mean orbital elements,

1 40074U          26073.51504617 +.00000000 +00000-0 +84680-3 0 00004
2 40074  98.4236  66.9687 0003219 103.9825 256.1761 15.11913095    07
Epoch (UTC): 14 March 2026 12:21:39
Eccentricity: 0.0003219
inclination: 98.4236°
perigee height: 528 km
apogee height: 533 km
right ascension of ascending node: 66.9687°
argument of perigee: 103.9825°
revolutions per day: 15.11913095
mean anomaly at epoch: 256.1761°

The dashed part of the orbit path shows where the satellite is in the earth's shadow,  

DLR